Time,TemperatureF,DewpointF,PressureIn,WindDirection,WindDirectionDegrees,WindSpeedMPH,WindSpeedGustMPH,Humidity,HourlyPrecipIn,Conditions,Clouds,dailyrainin,SolarRadiationWatts/m^2,SoftwareType,DateUTC
2013-04-08 00:00:00,57.0,54.1,30.13,SSE,148,0.0,0.0,90,0.00,,,0.00,0.0,meteohub,2013-04-08 04:00:00,
2013-04-08 00:02:00,56.8,54.0,30.13,SSE,148,0.0,0.0,90,0.00,,,0.00,0.0,meteohub,2013-04-08 04:02:00,
2013-04-08 00:06:00,56.8,54.0,30.13,SSE,148,0.0,0.0,90,0.00,,,0.00,0.0,meteohub,2013-04-08 04:06:00,
2013-04-08 00:12:00,56.7,53.8,30.13,SSE,148,0.0,0.0,90,0.00,,,0.00,0.0,meteohub,2013-04-08 04:12:00,
2013-04-08 00:17:00,56.5,53.6,30.13,SSE,148,0.0,0.0,90,0.00,,,0.00,0.0,meteohub,2013-04-08 04:17:00,
2013-04-08 00:22:00,56.5,53.6,30.12,SSE,148,0.0,0.0,90,0.00,,,0.00,0.0,meteohub,2013-04-08 04:22:00,
2013-04-08 00:27:00,56.3,53.4,30.13,SSE,148,0.0,0.0,90,0.00,,,0.00,0.0,meteohub,2013-04-08 04:27:00,
2013-04-08 00:32:00,56.1,53.6,30.13,SSE,148,0.0,0.0,91,0.00,,,0.00,0.0,meteohub,2013-04-08 04:32:00,
2013-04-08 00:37:00,56.1,53.6,30.13,SSE,148,0.0,0.0,91,0.00,,,0.00,0.0,meteohub,2013-04-08 04:37:00,
2013-04-08 00:42:00,55.9,53.4,30.13,SSE,148,0.0,0.0,91,0.00,,,0.00,0.0,meteohub,2013-04-08 04:42:00,
2013-04-08 00:50:00,55.8,53.2,30.12,SSE,148,0.0,0.0,91,0.00,,,0.00,0.0,meteohub,2013-04-08 04:50:00,
2013-04-08 00:57:00,55.8,53.2,30.12,SSE,148,0.0,0.0,91,0.00,,,0.00,0.0,meteohub,2013-04-08 04:57:00,
2013-04-08 01:02:00,55.6,53.1,30.12,SSE,148,0.0,0.0,91,0.00,,,0.00,0.0,meteohub,2013-04-08 05:02:00,
2013-04-08 01:07:00,55.4,52.9,30.12,SSE,148,0.0,0.0,91,0.00,,,0.00,0.0,meteohub,2013-04-08 05:07:00,
2013-04-08 01:12:00,55.4,52.9,30.12,SSE,148,0.0,0.0,91,0.00,,,0.00,0.0,meteohub,2013-04-08 05:12:00,
2013-04-08 01:18:00,55.2,52.7,30.12,SSE,148,0.0,0.0,91,0.00,,,0.00,0.0,meteohub,2013-04-08 05:18:00,
2013-04-08 01:24:00,55.2,52.7,30.12,SSE,148,0.0,0.0,91,0.00,,,0.00,0.0,meteohub,2013-04-08 05:24:00,
2013-04-08 01:30:00,55.2,52.7,30.12,SSE,148,0.0,0.0,91,0.00,,,0.00,0.0,meteohub,2013-04-08 05:30:00,
2013-04-08 01:37:00,55.0,52.5,30.12,SSE,148,0.0,0.0,91,0.00,,,0.00,0.0,meteohub,2013-04-08 05:37:00,
2013-04-08 01:42:00,55.0,52.5,30.12,SSE,148,0.0,0.0,91,0.00,,,0.00,0.0,meteohub,2013-04-08 05:42:00,
2013-04-08 01:47:00,55.0,52.5,30.12,SSE,148,0.0,0.0,91,0.00,,,0.00,0.0,meteohub,2013-04-08 05:47:00,
2013-04-08 01:52:00,54.9,52.5,30.12,SSE,148,0.0,0.0,92,0.00,,,0.00,0.0,meteohub,2013-04-08 05:52:00,
2013-04-08 01:58:00,54.9,52.5,30.12,SSE,148,0.0,0.0,92,0.00,,,0.00,0.0,meteohub,2013-04-08 05:58:00,
2013-04-08 02:04:00,54.7,52.3,30.12,SSE,148,0.0,0.0,92,0.00,,,0.00,0.0,meteohub,2013-04-08 06:04:00,
2013-04-08 02:10:00,54.7,52.3,30.12,SSE,148,0.0,0.0,92,0.00,,,0.00,0.0,meteohub,2013-04-08 06:10:00,
2013-04-08 02:17:00,54.7,52.3,30.12,SSE,148,0.0,0.0,92,0.00,,,0.00,0.0,meteohub,2013-04-08 06:17:00,
2013-04-08 02:22:00,54.7,52.3,30.12,SSE,148,0.0,0.0,92,0.00,,,0.00,0.0,meteohub,2013-04-08 06:22:00,
2013-04-08 02:27:00,54.5,52.2,30.11,SSE,148,0.0,0.0,92,0.00,,,0.00,0.0,meteohub,2013-04-08 06:27:00,
2013-04-08 02:32:00,54.5,52.2,30.11,SSE,148,0.0,0.0,92,0.00,,,0.00,0.0,meteohub,2013-04-08 06:32:00,
2013-04-08 02:37:00,54.3,52.0,30.11,SSE,148,0.0,0.0,92,0.00,,,0.00,0.0,meteohub,2013-04-08 06:37:00,
2013-04-08 02:42:00,54.3,52.0,30.11,SSE,148,0.0,0.0,92,0.00,,,0.00,0.0,meteohub,2013-04-08 06:42:00,
2013-04-08 02:47:00,54.1,51.8,30.10,SSE,148,0.0,0.0,92,0.00,,,0.00,0.0,meteohub,2013-04-08 06:47:00,
2013-04-08 02:52:00,54.1,51.8,30.10,SSE,148,0.0,0.0,92,0.00,,,0.00,0.0,meteohub,2013-04-08 06:52:00,
2013-04-08 02:58:00,54.0,52.0,30.10,SSE,148,0.0,0.0,93,0.00,,,0.00,0.0,meteohub,2013-04-08 06:58:00,
2013-04-08 03:04:00,54.0,52.0,30.10,SSE,148,0.0,0.0,93,0.00,,,0.00,0.0,meteohub,2013-04-08 07:04:00,
2013-04-08 03:10:00,53.8,51.8,30.10,SSE,148,0.0,0.0,93,0.00,,,0.00,0.0,meteohub,2013-04-08 07:10:00,
2013-04-08 03:17:00,53.8,51.8,30.10,SSE,148,0.0,0.0,93,0.00,,,0.00,0.0,meteohub,2013-04-08 07:17:00,
2013-04-08 03:22:00,53.6,51.6,30.10,SSE,148,0.0,0.0,93,0.00,,,0.00,0.0,meteohub,2013-04-08 07:22:00,
2013-04-08 03:29:00,53.4,51.4,30.10,SSE,148,0.0,0.0,93,0.00,,,0.00,0.0,meteohub,2013-04-08 07:29:00,
2013-04-08 03:35:00,53.2,51.3,30.10,SSE,148,0.0,0.0,93,0.00,,,0.00,0.0,meteohub,2013-04-08 07:35:00,
2013-04-08 03:42:00,53.2,51.3,30.09,SSE,148,0.0,0.0,93,0.00,,,0.00,0.0,meteohub,2013-04-08 07:42:00,
2013-04-08 03:47:00,53.2,51.3,30.10,SSE,148,0.0,0.0,93,0.00,,,0.00,0.0,meteohub,2013-04-08 07:47:00,
2013-04-08 03:54:00,53.1,51.1,30.10,SSE,148,0.0,0.0,93,0.00,,,0.00,0.0,meteohub,2013-04-08 07:54:00,
2013-04-08 04:00:00,53.1,51.1,30.10,SSE,148,0.0,0.0,93,0.00,,,0.00,0.0,meteohub,2013-04-08 08:00:00,
2013-04-08 04:07:00,52.9,50.9,30.09,SSE,148,0.0,0.0,93,0.00,,,0.00,0.0,meteohub,2013-04-08 08:07:00,
2013-04-08 04:12:00,52.9,50.9,30.09,SSE,148,0.0,0.0,93,0.00,,,0.00,0.0,meteohub,2013-04-08 08:12:00,
2013-04-08 04:17:00,52.7,50.7,30.10,SSE,148,0.0,0.0,93,0.00,,,0.00,0.0,meteohub,2013-04-08 08:17:00,
2013-04-08 04:22:00,52.5,50.5,30.10,SSE,148,0.0,0.0,93,0.00,,,0.00,0.0,meteohub,2013-04-08 08:22:00,
2013-04-08 04:27:00,52.5,50.5,30.10,SSE,148,0.0,0.0,93,0.00,,,0.00,0.0,meteohub,2013-04-08 08:27:00,
2013-04-08 04:32:00,52.3,50.4,30.09,SSE,148,0.0,0.0,93,0.00,,,0.00,0.0,meteohub,2013-04-08 08:32:00,
2013-04-08 04:37:00,52.3,50.4,30.09,SSE,148,0.0,0.0,93,0.00,,,0.00,0.0,meteohub,2013-04-08 08:37:00,
2013-04-08 04:44:00,52.2,50.2,30.09,SSE,148,0.0,0.0,93,0.00,,,0.00,0.0,meteohub,2013-04-08 08:44:00,
2013-04-08 04:51:00,52.2,50.2,30.09,SSE,148,0.0,0.0,93,0.00,,,0.00,0.0,meteohub,2013-04-08 08:51:00,
2013-04-08 04:57:00,52.2,50.2,30.10,SSE,148,0.0,0.0,93,0.00,,,0.00,0.0,meteohub,2013-04-08 08:57:00,
2013-04-08 05:02:00,52.0,50.0,30.10,SSE,148,0.0,0.0,93,0.00,,,0.00,0.0,meteohub,2013-04-08 09:02:00,
2013-04-08 05:07:00,52.0,50.0,30.10,SSE,148,0.0,0.0,93,0.00,,,0.00,0.0,meteohub,2013-04-08 09:07:00,
2013-04-08 05:12:00,52.0,50.0,30.10,SSE,148,0.0,0.0,93,0.00,,,0.00,0.0,meteohub,2013-04-08 09:12:00,
2013-04-08 05:17:00,51.6,49.6,30.10,SSE,148,0.0,0.0,93,0.00,,,0.00,0.0,meteohub,2013-04-08 09:17:00,
2013-04-08 05:22:00,51.6,49.6,30.10,SSE,148,0.0,0.0,93,0.00,,,0.00,0.0,meteohub,2013-04-08 09:22:00,
2013-04-08 05:27:00,51.6,49.6,30.10,SSE,148,0.0,0.0,93,0.00,,,0.00,0.0,meteohub,2013-04-08 09:27:00,
2013-04-08 05:34:00,51.4,49.8,30.10,SSE,148,0.0,0.0,94,0.00,,,0.00,0.0,meteohub,2013-04-08 09:34:00,
2013-04-08 05:41:00,51.4,49.8,30.10,SSE,148,0.0,0.0,94,0.00,,,0.00,0.0,meteohub,2013-04-08 09:41:00,
2013-04-08 05:47:00,51.4,49.5,30.10,SSE,148,0.0,0.0,93,0.00,,,0.00,0.0,meteohub,2013-04-08 09:47:00,
2013-04-08 05:53:00,51.3,49.3,30.10,SSE,148,0.0,0.0,93,0.00,,,0.00,0.0,meteohub,2013-04-08 09:53:00,
2013-04-08 05:59:00,51.3,49.6,30.11,SSE,148,0.0,0.0,94,0.00,,,0.00,0.0,meteohub,2013-04-08 09:59:00,
2013-04-08 06:05:00,51.3,49.6,30.11,SSE,148,0.0,0.0,94,0.00,,,0.00,0.0,meteohub,2013-04-08 10:05:00,
2013-04-08 06:12:00,51.1,49.5,30.11,SSE,148,0.0,0.0,94,0.00,,,0.00,0.0,meteohub,2013-04-08 10:12:00,
2013-04-08 06:17:00,51.1,49.5,30.11,SSE,148,0.0,0.0,94,0.00,,,0.00,0.0,meteohub,2013-04-08 10:17:00,
2013-04-08 06:24:00,50.9,49.3,30.11,SSE,148,0.0,0.0,94,0.00,,,0.00,0.0,meteohub,2013-04-08 10:24:00,
2013-04-08 06:30:00,50.7,49.1,30.11,SSE,148,0.0,0.0,94,0.00,,,0.00,0.0,meteohub,2013-04-08 10:30:00,
2013-04-08 06:37:00,50.7,49.1,30.12,SSE,148,0.0,0.0,94,0.00,,,0.00,0.0,meteohub,2013-04-08 10:37:00,
2013-04-08 06:42:00,50.7,49.1,30.12,SSE,148,0.0,0.0,94,0.00,,,0.00,0.0,meteohub,2013-04-08 10:42:00,
2013-04-08 06:47:00,50.5,48.9,30.12,SSE,148,0.0,0.0,94,0.00,,,0.00,0.0,meteohub,2013-04-08 10:47:00,
2013-04-08 06:52:00,50.5,48.9,30.12,SSE,148,0.0,0.0,94,0.00,,,0.00,0.0,meteohub,2013-04-08 10:52:00,
2013-04-08 06:57:00,50.5,48.9,30.12,SSE,148,0.0,0.0,94,0.00,,,0.00,0.0,meteohub,2013-04-08 10:57:00,
2013-04-08 07:02:00,50.4,48.7,30.12,SSE,148,0.0,0.0,94,0.00,,,0.00,0.0,meteohub,2013-04-08 11:02:00,
2013-04-08 07:08:00,50.4,48.7,30.13,SSE,148,0.0,0.0,94,0.00,,,0.00,0.0,meteohub,2013-04-08 11:08:00,
2013-04-08 07:14:00,50.4,48.7,30.13,SSE,148,0.0,0.0,94,0.00,,,0.00,7.0,meteohub,2013-04-08 11:14:00,
2013-04-08 07:20:00,50.4,48.7,30.14,SSE,148,0.0,0.0,94,0.00,,,0.00,11.0,meteohub,2013-04-08 11:20:00,
2013-04-08 07:27:00,50.2,48.6,30.14,SSE,148,0.0,0.0,94,0.00,,,0.00,14.0,meteohub,2013-04-08 11:27:00,
2013-04-08 07:33:00,50.2,48.6,30.14,SSE,148,0.0,0.0,94,0.00,,,0.00,19.0,meteohub,2013-04-08 11:33:00,
2013-04-08 07:39:00,50.2,48.6,30.14,SSE,148,0.0,0.0,94,0.00,,,0.00,23.0,meteohub,2013-04-08 11:39:00,
2013-04-08 07:46:00,50.4,48.7,30.15,SSE,148,0.0,0.0,94,0.00,,,0.00,26.0,meteohub,2013-04-08 11:46:00,
2013-04-08 07:52:00,50.4,48.7,30.15,SSE,148,0.0,0.0,94,0.00,,,0.00,30.0,meteohub,2013-04-08 11:52:00,
2013-04-08 07:57:00,50.5,49.1,30.15,SSE,148,0.0,0.0,95,0.00,,,0.00,33.0,meteohub,2013-04-08 11:57:00,
2013-04-08 08:02:00,50.7,49.3,30.15,SSE,148,0.0,0.0,95,0.00,,,0.00,39.0,meteohub,2013-04-08 12:02:00,
2013-04-08 08:07:00,50.9,49.5,30.15,SSE,148,0.0,0.0,95,0.00,,,0.00,39.0,meteohub,2013-04-08 12:07:00,
2013-04-08 08:14:00,51.3,49.8,30.15,SSE,148,0.0,0.0,95,0.00,,,0.00,40.0,meteohub,2013-04-08 12:14:00,
2013-04-08 08:20:00,51.4,50.0,30.15,SSE,148,0.0,0.0,95,0.00,,,0.00,42.0,meteohub,2013-04-08 12:20:00,
2013-04-08 08:26:00,52.5,51.4,30.16,SSE,148,0.0,0.0,96,0.00,,,0.00,47.0,meteohub,2013-04-08 12:26:00,
2013-04-08 08:32:00,53.1,52.0,30.16,SSE,148,0.0,0.0,96,0.00,,,0.00,62.0,meteohub,2013-04-08 12:32:00,
2013-04-08 08:37:00,53.4,52.3,30.16,SSE,148,0.0,0.0,96,0.00,,,0.00,47.0,meteohub,2013-04-08 12:37:00,
2013-04-08 08:42:00,54.1,53.1,30.16,SSE,148,0.0,0.0,96,0.00,,,0.00,51.0,meteohub,2013-04-08 12:42:00,
2013-04-08 08:47:00,55.4,54.5,30.16,SSE,148,0.0,0.0,97,0.00,,,0.00,51.0,meteohub,2013-04-08 12:47:00,
2013-04-08 08:52:00,57.0,56.1,30.16,NE,51,0.0,0.0,97,0.00,,,0.00,53.0,meteohub,2013-04-08 12:52:00,
2013-04-08 08:57:00,58.3,57.4,30.16,NE,51,0.0,2.0,97,0.00,,,0.00,69.0,meteohub,2013-04-08 12:57:00,
2013-04-08 09:02:00,59.4,58.5,30.16,NE,51,0.0,2.0,97,0.00,,,0.00,65.0,meteohub,2013-04-08 13:02:00,
2013-04-08 09:07:00,60.1,59.2,30.16,NE,51,0.0,2.0,97,0.00,,,0.00,60.0,meteohub,2013-04-08 13:07:00,
2013-04-08 09:12:00,60.4,59.5,30.16,NE,51,1.0,2.0,97,0.00,,,0.00,70.0,meteohub,2013-04-08 13:12:00,
2013-04-08 09:17:00,61.2,60.1,30.16,NE,52,0.0,2.0,96,0.00,,,0.00,100.0,meteohub,2013-04-08 13:17:00,
2013-04-08 09:23:00,62.4,61.3,30.16,NE,52,0.0,2.0,96,0.00,,,0.00,352.0,meteohub,2013-04-08 13:23:00,
2013-04-08 09:29:00,63.7,61.7,30.16,NE,52,0.0,2.0,93,0.00,,,0.00,364.0,meteohub,2013-04-08 13:29:00,
2013-04-08 09:35:00,64.9,62.2,30.16,NE,52,0.0,1.0,91,0.00,,,0.00,392.0,meteohub,2013-04-08 13:35:00,
2013-04-08 09:42:00,66.0,62.6,30.15,NE,52,0.0,1.0,89,0.00,,,0.00,403.0,meteohub,2013-04-08 13:42:00,
2013-04-08 09:47:00,66.9,63.0,30.15,NE,52,0.0,1.0,87,0.00,,,0.00,408.0,meteohub,2013-04-08 13:47:00,
2013-04-08 09:54:00,68.2,63.1,30.15,SE,136,0.0,5.0,84,0.00,,,0.00,329.0,meteohub,2013-04-08 13:54:00,
2013-04-08 10:01:00,68.9,63.1,30.16,SSW,202,0.0,5.0,82,0.00,,,0.00,345.0,meteohub,2013-04-08 14:01:00,
2013-04-08 10:07:00,69.6,63.1,30.16,SE,130,0.0,5.0,80,0.00,,,0.00,318.0,meteohub,2013-04-08 14:07:00,
2013-04-08 10:12:00,70.2,63.3,30.16,SE,144,1.0,4.0,79,0.00,,,0.00,385.0,meteohub,2013-04-08 14:12:00,
2013-04-08 10:17:00,70.9,63.3,30.16,SE,138,0.0,4.0,77,0.00,,,0.00,360.0,meteohub,2013-04-08 14:17:00,
2013-04-08 10:22:00,71.1,63.1,30.16,South,179,0.0,5.0,76,0.00,,,0.00,471.0,meteohub,2013-04-08 14:22:00,
2013-04-08 10:29:00,71.8,63.5,30.16,SE,138,1.0,5.0,75,0.00,,,0.00,204.0,meteohub,2013-04-08 14:29:00,
2013-04-08 10:35:00,71.6,63.3,30.16,SSE,149,0.0,4.0,75,0.00,,,0.00,399.0,meteohub,2013-04-08 14:35:00,
2013-04-08 10:41:00,72.3,63.5,30.16,SE,146,0.0,4.0,74,0.00,,,0.00,336.0,meteohub,2013-04-08 14:41:00,
2013-04-08 10:47:00,72.9,63.0,30.15,West,279,2.0,5.0,71,0.00,,,0.00,431.0,meteohub,2013-04-08 14:47:00,
2013-04-08 10:52:00,73.2,63.3,30.16,SSW,213,1.0,6.0,71,0.00,,,0.00,547.0,meteohub,2013-04-08 14:52:00,
2013-04-08 10:59:00,73.8,62.6,30.16,SSE,168,0.0,6.0,68,0.00,,,0.00,715.0,meteohub,2013-04-08 14:59:00,
2013-04-08 11:06:00,74.1,62.4,30.16,South,175,0.0,6.0,67,0.00,,,0.00,733.0,meteohub,2013-04-08 15:06:00,
2013-04-08 11:12:00,74.7,62.1,30.16,WSW,242,0.0,5.0,65,0.00,,,0.00,751.0,meteohub,2013-04-08 15:12:00,
2013-04-08 11:18:00,75.6,62.1,30.16,East,99,0.0,5.0,63,0.00,,,0.00,766.0,meteohub,2013-04-08 15:18:00,
2013-04-08 11:24:00,75.6,61.2,30.16,East,101,0.0,5.0,61,0.00,,,0.00,780.0,meteohub,2013-04-08 15:24:00,
2013-04-08 11:31:00,75.9,60.1,30.16,SE,141,0.0,5.0,58,0.00,,,0.00,798.0,meteohub,2013-04-08 15:31:00,
2013-04-08 11:37:00,76.6,59.7,30.16,East,82,0.0,4.0,56,0.00,,,0.00,810.0,meteohub,2013-04-08 15:37:00,
2013-04-08 11:42:00,76.6,59.2,30.16,South,169,0.0,5.0,55,0.00,,,0.00,821.0,meteohub,2013-04-08 15:42:00,
2013-04-08 11:47:00,77.4,61.3,30.16,SSE,151,3.0,5.0,58,0.00,,,0.00,830.0,meteohub,2013-04-08 15:47:00,
2013-04-08 11:52:00,76.6,59.2,30.16,ENE,73,0.0,4.0,55,0.00,,,0.00,837.0,meteohub,2013-04-08 15:52:00,
2013-04-08 11:59:00,77.0,60.1,30.16,West,266,0.0,6.0,56,0.00,,,0.00,847.0,meteohub,2013-04-08 15:59:00,
2013-04-08 12:05:00,77.4,61.0,30.16,SE,146,3.0,6.0,57,0.00,,,0.00,863.0,meteohub,2013-04-08 16:05:00,
2013-04-08 12:11:00,78.4,61.9,30.16,ENE,77,0.0,7.0,57,0.00,,,0.00,888.0,meteohub,2013-04-08 16:11:00,
2013-04-08 12:17:00,78.3,60.3,30.15,SSW,208,4.0,7.0,54,0.00,,,0.00,896.0,meteohub,2013-04-08 16:17:00,
2013-04-08 12:22:00,78.8,59.7,30.16,SSW,202,0.0,7.0,52,0.00,,,0.00,895.0,meteohub,2013-04-08 16:22:00,
2013-04-08 12:27:00,79.5,61.9,30.15,South,184,0.0,7.0,55,0.00,,,0.00,904.0,meteohub,2013-04-08 16:27:00,
2013-04-08 12:32:00,79.5,59.7,30.16,NE,40,0.0,6.0,51,0.00,,,0.00,900.0,meteohub,2013-04-08 16:32:00,
2013-04-08 12:37:00,79.2,59.5,30.15,ENE,78,0.0,11.0,51,0.00,,,0.00,912.0,meteohub,2013-04-08 16:37:00,
2013-04-08 12:43:00,78.3,60.8,30.15,ESE,103,0.0,11.0,55,0.00,,,0.00,984.0,meteohub,2013-04-08 16:43:00,
2013-04-08 12:49:00,78.3,61.3,30.15,WSW,242,0.0,4.0,56,0.00,,,0.00,954.0,meteohub,2013-04-08 16:49:00,
2013-04-08 12:55:00,79.7,59.9,30.15,SSE,153,3.0,3.0,51,0.00,,,0.00,963.0,meteohub,2013-04-08 16:55:00,
2013-04-08 13:01:00,79.5,58.6,30.15,SSE,155,0.0,7.0,49,0.00,,,0.00,942.0,meteohub,2013-04-08 17:01:00,
2013-04-08 13:07:00,79.9,59.0,30.15,SSE,160,0.0,7.0,49,0.00,,,0.00,949.0,meteohub,2013-04-08 17:07:00,
2013-04-08 13:12:00,79.9,59.0,30.14,West,269,1.0,7.0,49,0.00,,,0.00,947.0,meteohub,2013-04-08 17:12:00,
2013-04-08 13:17:00,79.3,59.7,30.14,ENE,69,2.0,5.0,51,0.00,,,0.00,689.0,meteohub,2013-04-08 17:17:00,
2013-04-08 13:22:00,78.6,58.5,30.14,SSE,161,1.0,5.0,50,0.00,,,0.00,214.0,meteohub,2013-04-08 17:22:00,
2013-04-08 13:29:00,80.4,60.1,30.14,East,82,0.0,5.0,50,0.00,,,0.00,1009.0,meteohub,2013-04-08 17:29:00,
2013-04-08 13:35:00,80.6,59.2,30.13,WSW,252,3.0,4.0,48,0.00,,,0.00,687.0,meteohub,2013-04-08 17:35:00,
2013-04-08 13:42:00,80.4,59.0,30.13,ENE,74,1.0,6.0,48,0.00,,,0.00,1007.0,meteohub,2013-04-08 17:42:00,
2013-04-08 13:47:00,81.1,57.7,30.13,East,82,0.0,6.0,45,0.00,,,0.00,967.0,meteohub,2013-04-08 17:47:00,
2013-04-08 13:54:00,81.1,57.2,30.12,SE,145,1.0,6.0,44,0.00,,,0.00,1005.0,meteohub,2013-04-08 17:54:00,
2013-04-08 14:00:00,80.8,58.1,30.12,ENE,71,3.0,6.0,46,0.00,,,0.00,1025.0,meteohub,2013-04-08 18:00:00,
2013-04-08 14:07:00,81.1,57.2,30.12,NE,45,2.0,7.0,44,0.00,,,0.00,990.0,meteohub,2013-04-08 18:07:00,
2013-04-08 14:12:00,81.9,57.7,30.12,SSE,163,1.0,7.0,44,0.00,,,0.00,1025.0,meteohub,2013-04-08 18:12:00,
2013-04-08 14:17:00,82.2,58.8,30.12,SSE,167,0.0,6.0,45,0.00,,,0.00,1021.0,meteohub,2013-04-08 18:17:00,
2013-04-08 14:22:00,82.0,57.9,30.12,SSE,163,2.0,5.0,44,0.00,,,0.00,1027.0,meteohub,2013-04-08 18:22:00,
2013-04-08 14:27:00,81.9,57.7,30.11,SSW,193,0.0,5.0,44,0.00,,,0.00,1032.0,meteohub,2013-04-08 18:27:00,
2013-04-08 14:32:00,81.7,57.6,30.11,West,279,3.0,5.0,44,0.00,,,0.00,1035.0,meteohub,2013-04-08 18:32:00,
2013-04-08 14:37:00,81.5,59.4,30.11,ENE,63,3.0,8.0,47,0.00,,,0.00,1025.0,meteohub,2013-04-08 18:37:00,
2013-04-08 14:42:00,81.1,59.0,30.11,SSE,159,0.0,8.0,47,0.00,,,0.00,1020.0,meteohub,2013-04-08 18:42:00,
2013-04-08 14:47:00,82.0,58.6,30.11,West,275,1.0,8.0,45,0.00,,,0.00,1025.0,meteohub,2013-04-08 18:47:00,
2013-04-08 14:52:00,82.8,57.9,30.10,SSE,151,0.0,7.0,43,0.00,,,0.00,981.0,meteohub,2013-04-08 18:52:00,
2013-04-08 14:57:00,82.0,55.9,30.10,SSE,148,2.0,7.0,41,0.00,,,0.00,958.0,meteohub,2013-04-08 18:57:00,
2013-04-08 15:02:00,82.8,59.2,30.10,ENE,72,1.0,6.0,45,0.00,,,0.00,956.0,meteohub,2013-04-08 19:02:00,
2013-04-08 15:07:00,83.1,58.3,30.10,South,173,4.0,6.0,43,0.00,,,0.00,963.0,meteohub,2013-04-08 19:07:00,
2013-04-08 15:12:00,82.9,56.8,30.10,NE,34,0.0,5.0,41,0.00,,,0.00,956.0,meteohub,2013-04-08 19:12:00,
2013-04-08 15:20:00,82.9,58.1,30.10,SE,124,0.0,5.0,43,0.00,,,0.00,188.0,meteohub,2013-04-08 19:20:00,
2013-04-08 15:25:00,81.0,58.3,30.10,ESE,114,0.0,5.0,46,0.00,,,0.00,218.0,meteohub,2013-04-08 19:25:00,
2013-04-08 15:31:00,80.2,57.6,30.09,SSE,157,0.0,5.0,46,0.00,,,0.00,246.0,meteohub,2013-04-08 19:31:00,
2013-04-08 15:37:00,79.9,57.9,30.09,SSE,156,0.0,4.0,47,0.00,,,0.00,237.0,meteohub,2013-04-08 19:37:00,
2013-04-08 15:42:00,79.5,58.1,30.09,NE,55,1.0,4.0,48,0.00,,,0.00,274.0,meteohub,2013-04-08 19:42:00,
2013-04-08 15:47:00,79.7,57.7,30.09,ENE,64,4.0,4.0,47,0.00,,,0.00,448.0,meteohub,2013-04-08 19:47:00,
2013-04-08 15:52:00,79.9,59.0,30.09,ENE,70,2.0,4.0,49,0.00,,,0.00,209.0,meteohub,2013-04-08 19:52:00,
2013-04-08 15:57:00,79.7,58.8,30.09,ESE,119,0.0,4.0,49,0.00,,,0.00,193.0,meteohub,2013-04-08 19:57:00,
2013-04-08 16:02:00,79.5,58.6,30.08,ESE,119,0.0,5.0,49,0.00,,,0.00,197.0,meteohub,2013-04-08 20:02:00,
2013-04-08 16:07:00,79.3,60.3,30.08,SSE,153,0.0,5.0,52,0.00,,,0.00,332.0,meteohub,2013-04-08 20:07:00,
2013-04-08 16:12:00,80.4,59.0,30.08,SSE,154,0.0,5.0,48,0.00,,,0.00,747.0,meteohub,2013-04-08 20:12:00,
2013-04-08 16:18:00,82.0,60.4,30.07,ENE,61,2.0,5.0,48,0.00,,,0.00,729.0,meteohub,2013-04-08 20:18:00,
2013-04-08 16:24:00,82.2,59.4,30.07,SSE,159,0.0,5.0,46,0.00,,,0.00,675.0,meteohub,2013-04-08 20:24:00,
2013-04-08 16:31:00,82.0,59.2,30.07,South,182,0.0,6.0,46,0.00,,,0.00,684.0,meteohub,2013-04-08 20:31:00,
2013-04-08 16:37:00,82.4,60.1,30.07,NE,55,1.0,6.0,47,0.00,,,0.00,673.0,meteohub,2013-04-08 20:37:00,
2013-04-08 16:42:00,82.2,59.9,30.07,East,86,3.0,6.0,47,0.00,,,0.00,687.0,meteohub,2013-04-08 20:42:00,
2013-04-08 16:50:00,81.7,60.1,30.06,ENE,67,2.0,6.0,48,0.00,,,0.00,664.0,meteohub,2013-04-08 20:50:00,
2013-04-08 16:56:00,81.3,60.3,30.06,SSE,163,3.0,6.0,49,0.00,,,0.00,169.0,meteohub,2013-04-08 20:56:00,
2013-04-08 17:02:00,80.2,59.9,30.07,East,80,0.0,6.0,50,0.00,,,0.00,200.0,meteohub,2013-04-08 21:02:00,
2013-04-08 17:09:00,80.2,60.4,30.06,SE,136,0.0,5.0,51,0.00,,,0.00,114.0,meteohub,2013-04-08 21:09:00,
2013-04-08 17:15:00,80.2,61.0,30.06,East,88,1.0,4.0,52,0.00,,,0.00,520.0,meteohub,2013-04-08 21:15:00,
2013-04-08 17:21:00,80.8,61.5,30.06,ESE,105,0.0,3.0,52,0.00,,,0.00,504.0,meteohub,2013-04-08 21:21:00,
2013-04-08 17:27:00,80.6,60.8,30.06,ENE,62,0.0,4.0,51,0.00,,,0.00,104.0,meteohub,2013-04-08 21:27:00,
2013-04-08 17:34:00,80.2,61.0,30.06,East,92,2.0,4.0,52,0.00,,,0.00,452.0,meteohub,2013-04-08 21:34:00,
2013-04-08 17:40:00,80.2,59.9,30.06,SSE,161,0.0,7.0,50,0.00,,,0.00,403.0,meteohub,2013-04-08 21:40:00,
2013-04-08 17:46:00,80.2,60.4,30.06,ENE,66,0.0,6.0,51,0.00,,,0.00,352.0,meteohub,2013-04-08 21:46:00,
2013-04-08 17:52:00,80.1,60.8,30.07,SSE,155,3.0,6.0,52,0.00,,,0.00,341.0,meteohub,2013-04-08 21:52:00,
2013-04-08 17:57:00,80.1,60.8,30.07,NE,55,0.0,5.0,52,0.00,,,0.00,348.0,meteohub,2013-04-08 21:57:00,
2013-04-08 18:02:00,79.9,60.1,30.07,East,93,0.0,5.0,51,0.00,,,0.00,341.0,meteohub,2013-04-08 22:02:00,
2013-04-08 18:08:00,80.1,60.3,30.07,ENE,76,0.0,5.0,51,0.00,,,0.00,302.0,meteohub,2013-04-08 22:08:00,
2013-04-08 18:14:00,79.9,60.1,30.07,East,80,0.0,5.0,51,0.00,,,0.00,285.0,meteohub,2013-04-08 22:14:00,
2013-04-08 18:20:00,79.5,60.4,30.08,East,89,0.0,4.0,52,0.00,,,0.00,260.0,meteohub,2013-04-08 22:20:00,
2013-04-08 18:27:00,79.3,60.3,30.08,ENE,78,0.0,4.0,52,0.00,,,0.00,241.0,meteohub,2013-04-08 22:27:00,
2013-04-08 18:32:00,79.2,60.1,30.08,ESE,106,1.0,4.0,52,0.00,,,0.00,211.0,meteohub,2013-04-08 22:32:00,
2013-04-08 18:37:00,79.0,60.4,30.08,West,275,0.0,6.0,53,0.00,,,0.00,151.0,meteohub,2013-04-08 22:37:00,
2013-04-08 18:42:00,79.0,59.9,30.08,ESE,114,0.0,6.0,52,0.00,,,0.00,113.0,meteohub,2013-04-08 22:42:00,
2013-04-08 18:47:00,78.8,60.3,30.09,NNE,13,0.0,5.0,53,0.00,,,0.00,169.0,meteohub,2013-04-08 22:47:00,
2013-04-08 18:52:00,78.6,60.1,30.09,South,178,0.0,3.0,53,0.00,,,0.00,56.0,meteohub,2013-04-08 22:52:00,
2013-04-08 18:58:00,78.3,59.2,30.09,NE,44,0.0,4.0,52,0.00,,,0.00,42.0,meteohub,2013-04-08 22:58:00,
2013-04-08 19:04:00,77.5,58.5,30.09,East,82,0.0,4.0,52,0.00,,,0.00,0.0,meteohub,2013-04-08 23:04:00,
2013-04-08 19:11:00,77.0,59.0,30.09,ENE,76,0.0,7.0,54,0.00,,,0.00,0.0,meteohub,2013-04-08 23:11:00,
2013-04-08 19:17:00,76.5,58.6,30.09,SE,146,0.0,7.0,54,0.00,,,0.00,0.0,meteohub,2013-04-08 23:17:00,
2013-04-08 19:22:00,75.9,58.6,30.09,NW,311,0.0,7.0,55,0.00,,,0.00,0.0,meteohub,2013-04-08 23:22:00,
2013-04-08 19:27:00,75.6,58.8,30.09,South,187,3.0,7.0,56,0.00,,,0.00,0.0,meteohub,2013-04-08 23:27:00,
2013-04-08 19:32:00,75.0,58.8,30.09,SSE,150,1.0,7.0,57,0.00,,,0.00,0.0,meteohub,2013-04-08 23:32:00,
2013-04-08 19:37:00,74.8,58.6,30.09,SSE,150,1.0,3.0,57,0.00,,,0.00,0.0,meteohub,2013-04-08 23:37:00,
2013-04-08 19:42:00,74.5,58.8,30.10,SSE,150,0.0,3.0,58,0.00,,,0.00,0.0,meteohub,2013-04-08 23:42:00,
2013-04-08 19:47:00,73.9,58.3,30.10,SSE,153,0.0,1.0,58,0.00,,,0.00,0.0,meteohub,2013-04-08 23:47:00,
2013-04-08 19:52:00,73.6,58.3,30.10,SSE,153,0.0,5.0,59,0.00,,,0.00,0.0,meteohub,2013-04-08 23:52:00,
2013-04-08 19:57:00,73.0,57.9,30.10,SSE,153,0.0,5.0,59,0.00,,,0.00,0.0,meteohub,2013-04-08 23:57:00,
2013-04-08 20:02:00,72.7,57.9,30.10,SSE,153,0.0,1.0,60,0.00,,,0.00,0.0,meteohub,2013-04-09 00:02:00,
2013-04-08 20:07:00,72.1,57.9,30.10,SSE,153,0.0,1.0,61,0.00,,,0.00,0.0,meteohub,2013-04-09 00:07:00,
2013-04-08 20:13:00,71.4,57.7,30.10,SSE,148,0.0,1.0,62,0.00,,,0.00,0.0,meteohub,2013-04-09 00:13:00,
2013-04-08 20:19:00,71.2,57.9,30.10,SSE,148,0.0,1.0,63,0.00,,,0.00,0.0,meteohub,2013-04-09 00:19:00,
2013-04-08 20:25:00,70.7,57.9,30.11,SSE,148,0.0,1.0,64,0.00,,,0.00,0.0,meteohub,2013-04-09 00:25:00,
2013-04-08 20:32:00,70.2,58.3,30.11,SSE,148,0.0,1.0,66,0.00,,,0.00,0.0,meteohub,2013-04-09 00:32:00,
2013-04-08 20:37:00,70.0,58.5,30.11,SSE,148,0.0,1.0,67,0.00,,,0.00,0.0,meteohub,2013-04-09 00:37:00,
2013-04-08 20:42:00,69.4,58.5,30.11,SSE,148,0.0,1.0,68,0.00,,,0.00,0.0,meteohub,2013-04-09 00:42:00,
2013-04-08 20:47:00,69.1,58.5,30.11,SSE,148,0.0,1.0,69,0.00,,,0.00,0.0,meteohub,2013-04-09 00:47:00,
2013-04-08 20:54:00,68.7,58.5,30.11,SSE,148,0.0,0.0,70,0.00,,,0.00,0.0,meteohub,2013-04-09 00:54:00,
2013-04-08 21:00:00,68.5,58.8,30.11,SSE,148,0.0,0.0,71,0.00,,,0.00,0.0,meteohub,2013-04-09 01:00:00,
2013-04-08 21:06:00,68.2,58.8,30.11,SSE,148,0.0,0.0,72,0.00,,,0.00,0.0,meteohub,2013-04-09 01:06:00,
2013-04-08 21:12:00,67.8,58.5,30.12,SSE,148,0.0,0.0,72,0.00,,,0.00,0.0,meteohub,2013-04-09 01:12:00,
2013-04-08 21:17:00,67.6,58.6,30.12,SSE,148,0.0,0.0,73,0.00,,,0.00,0.0,meteohub,2013-04-09 01:17:00,
2013-04-08 21:22:00,67.3,58.6,30.12,SSE,148,0.0,0.0,74,0.00,,,0.00,0.0,meteohub,2013-04-09 01:22:00,
2013-04-08 21:27:00,67.1,58.5,30.12,SSE,148,0.0,0.0,74,0.00,,,0.00,0.0,meteohub,2013-04-09 01:27:00,
2013-04-08 21:32:00,66.9,58.3,30.12,SSE,148,0.0,0.0,74,0.00,,,0.00,0.0,meteohub,2013-04-09 01:32:00,
2013-04-08 21:37:00,66.6,58.8,30.12,SSE,148,0.0,0.0,76,0.00,,,0.00,0.0,meteohub,2013-04-09 01:37:00,
2013-04-08 21:42:00,66.4,59.0,30.12,SSE,148,0.0,0.0,77,0.00,,,0.00,0.0,meteohub,2013-04-09 01:42:00,
2013-04-08 21:47:00,66.0,59.0,30.12,SSE,148,0.0,0.0,78,0.00,,,0.00,0.0,meteohub,2013-04-09 01:47:00,
2013-04-08 21:52:00,65.8,58.8,30.13,SSE,148,0.0,0.0,78,0.00,,,0.00,0.0,meteohub,2013-04-09 01:52:00,
2013-04-08 21:59:00,65.5,58.5,30.13,SSE,148,0.0,0.0,78,0.00,,,0.00,0.0,meteohub,2013-04-09 01:59:00,
2013-04-08 22:05:00,65.1,58.5,30.13,SSE,148,0.0,0.0,79,0.00,,,0.00,0.0,meteohub,2013-04-09 02:05:00,
2013-04-08 22:11:00,64.9,58.6,30.13,SSE,148,0.0,0.0,80,0.00,,,0.00,0.0,meteohub,2013-04-09 02:11:00,
2013-04-08 22:17:00,64.6,58.6,30.14,SSE,148,0.0,0.0,81,0.00,,,0.00,0.0,meteohub,2013-04-09 02:17:00,
2013-04-08 22:24:00,64.2,58.6,30.13,SSE,148,0.0,0.0,82,0.00,,,0.00,0.0,meteohub,2013-04-09 02:24:00,
2013-04-08 22:30:00,63.9,58.6,30.14,SSE,148,0.0,0.0,83,0.00,,,0.00,0.0,meteohub,2013-04-09 02:30:00,
2013-04-08 22:36:00,63.7,58.5,30.13,SSE,148,0.0,0.0,83,0.00,,,0.00,0.0,meteohub,2013-04-09 02:36:00,
2013-04-08 22:42:00,63.3,58.1,30.14,SSE,148,0.0,0.0,83,0.00,,,0.00,0.0,meteohub,2013-04-09 02:42:00,
2013-04-08 22:47:00,63.1,58.3,30.14,SSE,148,0.0,0.0,84,0.00,,,0.00,0.0,meteohub,2013-04-09 02:47:00,
2013-04-08 22:52:00,63.0,58.1,30.14,SSE,148,0.0,0.0,84,0.00,,,0.00,0.0,meteohub,2013-04-09 02:52:00,
2013-04-08 22:58:00,62.8,58.3,30.14,SSE,148,0.0,0.0,85,0.00,,,0.00,0.0,meteohub,2013-04-09 02:58:00,
2013-04-08 23:04:00,62.6,58.3,30.14,SSE,148,0.0,0.0,86,0.00,,,0.00,0.0,meteohub,2013-04-09 03:04:00,
2013-04-08 23:10:00,62.4,58.1,30.14,SSE,148,0.0,0.0,86,0.00,,,0.00,0.0,meteohub,2013-04-09 03:10:00,
2013-04-08 23:17:00,62.1,57.6,30.14,SSE,148,0.0,0.0,85,0.00,,,0.00,0.0,meteohub,2013-04-09 03:17:00,
2013-04-08 23:23:00,61.9,57.4,30.14,SSE,148,0.0,0.0,85,0.00,,,0.00,0.0,meteohub,2013-04-09 03:23:00,
2013-04-08 23:29:00,61.7,57.4,30.14,SSE,148,0.0,0.0,86,0.00,,,0.00,0.0,meteohub,2013-04-09 03:29:00,
2013-04-08 23:36:00,61.5,57.4,30.14,SSE,148,0.0,0.0,86,0.00,,,0.00,0.0,meteohub,2013-04-09 03:36:00,
2013-04-08 23:42:00,61.3,57.2,30.14,SSE,148,0.0,0.0,86,0.00,,,0.00,0.0,meteohub,2013-04-09 03:42:00,
2013-04-08 23:47:00,61.2,57.0,30.14,SSE,148,0.0,0.0,86,0.00,,,0.00,0.0,meteohub,2013-04-09 03:47:00,
2013-04-08 23:54:00,61.0,56.8,30.14,SSE,148,0.0,0.0,86,0.00,,,0.00,0.0,meteohub,2013-04-09 03:54:00,